Time,TemperatureF,DewpointF,PressureIn,WindDirection,WindDirectionDegrees,WindSpeedMPH,WindSpeedGustMPH,Humidity,HourlyPrecipIn,Conditions,Clouds,dailyrainin,SolarRadiationWatts/m^2,SoftwareType,DateUTC
2013-06-29 00:00:00,68.8,66.4,29.71,SSW,200,0.0,0.0,92,0.00,,,0.07,0,Wunderground v.1.15,2013-06-29 04:00:00,
2013-06-29 00:10:00,68.9,66.5,29.70,SSW,200,0.0,4.0,92,0.00,,,0.07,0,Wunderground v.1.15,2013-06-29 04:10:00,
2013-06-29 00:20:00,68.9,66.5,29.70,SSW,200,0.0,4.0,92,0.00,,,0.07,0,Wunderground v.1.15,2013-06-29 04:20:00,
2013-06-29 00:30:00,68.9,66.5,29.69,SSW,200,0.0,4.0,92,0.00,,,0.00,0,Wunderground v.1.15,2013-06-29 04:30:00,
2013-06-29 00:40:00,68.9,66.8,29.70,NNE,22,0.0,6.0,93,0.00,,,0.00,0,Wunderground v.1.15,2013-06-29 04:40:00,
2013-06-29 00:50:00,69.1,67.0,29.70,North,5,1.0,1.0,93,0.00,,,0.00,0,Wunderground v.1.15,2013-06-29 04:50:00,
2013-06-29 01:00:00,69.1,67.0,29.70,North,5,0.0,0.0,93,0.00,,,0.00,0,Wunderground v.1.15,2013-06-29 05:00:00,
2013-06-29 01:10:00,69.4,67.6,29.68,WSW,238,0.0,4.0,94,0.00,,,0.01,0,Wunderground v.1.15,2013-06-29 05:10:00,
2013-06-29 01:20:00,69.6,67.8,29.68,South,180,2.0,2.0,94,0.00,,,0.01,0,Wunderground v.1.15,2013-06-29 05:20:00,
2013-06-29 01:30:00,69.8,68.0,29.67,South,180,2.0,4.0,94,0.00,,,0.01,0,Wunderground v.1.15,2013-06-29 05:30:00,
2013-06-29 01:40:00,69.8,68.0,29.66,South,180,1.0,1.0,94,0.00,,,0.01,0,Wunderground v.1.15,2013-06-29 05:40:00,
2013-06-29 01:50:00,69.8,68.0,29.66,South,180,2.0,3.0,94,0.00,,,0.01,0,Wunderground v.1.15,2013-06-29 05:50:00,
2013-06-29 02:00:00,69.6,67.8,29.66,South,180,1.0,2.0,94,0.00,,,0.01,0,Wunderground v.1.15,2013-06-29 06:00:00,
2013-06-29 02:10:00,69.4,67.6,29.66,South,180,1.0,1.0,94,0.00,,,0.01,0,Wunderground v.1.15,2013-06-29 06:10:00,
2013-06-29 02:20:00,69.4,67.9,29.66,South,180,1.0,1.0,95,0.00,,,0.01,0,Wunderground v.1.15,2013-06-29 06:20:00,
2013-06-29 02:30:00,69.4,67.9,29.66,South,180,0.0,7.0,95,0.00,,,0.01,0,Wunderground v.1.15,2013-06-29 06:30:00,
2013-06-29 02:40:00,69.1,67.6,29.66,South,180,0.0,0.0,95,0.00,,,0.01,0,Wunderground v.1.15,2013-06-29 06:40:00,
2013-06-29 02:51:00,69.3,67.8,29.66,South,180,0.0,0.0,95,0.00,,,0.01,0,Wunderground v.1.15,2013-06-29 06:51:00,
2013-06-29 03:00:00,69.1,67.6,29.66,South,180,0.0,0.0,95,0.00,,,0.01,0,Wunderground v.1.15,2013-06-29 07:00:00,
2013-06-29 03:10:00,68.9,67.4,29.66,South,180,0.0,6.0,95,0.00,,,0.01,0,Wunderground v.1.15,2013-06-29 07:10:00,
2013-06-29 03:20:00,68.9,67.4,29.66,South,180,0.0,6.0,95,0.00,,,0.01,0,Wunderground v.1.15,2013-06-29 07:20:00,
2013-06-29 03:30:00,68.9,67.4,29.66,South,180,0.0,6.0,95,0.00,,,0.01,0,Wunderground v.1.15,2013-06-29 07:30:00,
2013-06-29 03:40:00,69.3,68.1,29.66,South,180,0.0,0.0,96,0.00,,,0.01,0,Wunderground v.1.15,2013-06-29 07:40:00,
2013-06-29 03:50:00,69.3,68.1,29.66,South,180,0.0,1.0,96,0.00,,,0.01,0,Wunderground v.1.15,2013-06-29 07:50:00,
2013-06-29 04:00:00,69.6,68.4,29.66,South,180,0.0,0.0,96,0.00,,,0.01,0,Wunderground v.1.15,2013-06-29 08:00:00,
2013-06-29 04:10:00,69.8,68.6,29.66,South,180,0.0,1.0,96,0.00,,,0.01,0,Wunderground v.1.15,2013-06-29 08:10:00,
2013-06-29 04:20:00,69.9,68.7,29.66,South,180,0.0,1.0,96,0.00,,,0.01,0,Wunderground v.1.15,2013-06-29 08:20:00,
2013-06-29 04:30:00,70.3,69.1,29.67,South,180,1.0,1.0,96,0.00,,,0.01,0,Wunderground v.1.15,2013-06-29 08:30:00,
2013-06-29 04:40:00,70.3,69.1,29.67,SSW,210,3.0,3.0,96,0.00,,,0.01,0,Wunderground v.1.15,2013-06-29 08:40:00,
2013-06-29 04:51:00,70.3,69.1,29.67,South,177,4.0,4.0,96,0.00,,,0.01,0,Wunderground v.1.15,2013-06-29 08:51:00,
2013-06-29 05:00:00,70.3,69.1,29.67,SSW,196,2.0,2.0,96,0.00,,,0.01,0,Wunderground v.1.15,2013-06-29 09:00:00,
2013-06-29 05:10:00,70.3,69.1,29.68,SSW,195,1.0,1.0,96,0.00,,,0.01,0,Wunderground v.1.15,2013-06-29 09:10:00,
2013-06-29 05:20:00,70.4,69.2,29.68,SSW,195,0.0,3.0,96,0.00,,,0.01,0,Wunderground v.1.15,2013-06-29 09:20:00,
2013-06-29 05:30:00,70.4,69.2,29.68,SSW,195,0.0,3.0,96,0.00,,,0.01,0,Wunderground v.1.15,2013-06-29 09:30:00,
2013-06-29 05:40:00,70.4,69.2,29.68,SSW,195,0.0,0.0,96,0.00,,,0.01,0,Wunderground v.1.15,2013-06-29 09:40:00,
2013-06-29 05:50:00,70.4,69.2,29.68,SSW,195,0.0,0.0,96,0.00,,,0.01,0,Wunderground v.1.15,2013-06-29 09:50:00,
2013-06-29 06:00:00,70.4,69.2,29.68,SSW,195,0.0,0.0,96,0.00,,,0.01,0,Wunderground v.1.15,2013-06-29 10:00:00,
2013-06-29 06:10:00,70.3,69.1,29.68,SSW,195,0.0,7.0,96,0.00,,,0.01,0,Wunderground v.1.15,2013-06-29 10:10:00,
2013-06-29 06:20:00,70.4,69.2,29.68,SSW,195,0.0,7.0,96,0.00,,,0.01,0,Wunderground v.1.15,2013-06-29 10:20:00,
2013-06-29 06:30:00,70.3,69.1,29.68,SSW,195,0.0,7.0,96,0.00,,,0.01,0,Wunderground v.1.15,2013-06-29 10:30:00,
2013-06-29 06:40:00,70.1,68.9,29.68,SSW,195,0.0,0.0,96,0.00,,,0.01,5,Wunderground v.1.15,2013-06-29 10:40:00,
2013-06-29 06:50:00,69.9,68.7,29.68,SSW,195,0.0,0.0,96,0.00,,,0.01,9,Wunderground v.1.15,2013-06-29 10:50:00,
2013-06-29 07:00:00,69.6,68.4,29.68,SSW,195,0.0,0.0,96,0.00,,,0.01,12,Wunderground v.1.15,2013-06-29 11:00:00,
2013-06-29 07:10:00,69.8,68.6,29.68,SSW,195,0.0,3.0,96,0.00,,,0.01,19,Wunderground v.1.15,2013-06-29 11:10:00,
2013-06-29 07:20:00,69.9,68.7,29.68,SSW,195,0.0,3.0,96,0.00,,,0.01,14,Wunderground v.1.15,2013-06-29 11:20:00,
2013-06-29 07:30:00,70.1,68.9,29.68,SSW,195,0.0,3.0,96,0.00,,,0.01,14,Wunderground v.1.15,2013-06-29 11:30:00,
2013-06-29 07:40:00,70.1,68.9,29.68,SSW,195,0.0,0.0,96,0.00,,,0.01,16,Wunderground v.1.15,2013-06-29 11:40:00,
2013-06-29 07:50:00,70.3,69.1,29.68,SSW,195,0.0,0.0,96,0.00,,,0.01,19,Wunderground v.1.15,2013-06-29 11:50:00,
2013-06-29 08:00:00,70.4,69.2,29.68,SSW,195,0.0,0.0,96,0.00,,,0.01,21,Wunderground v.1.15,2013-06-29 12:00:00,
2013-06-29 08:10:00,70.4,69.2,29.68,SSW,195,1.0,1.0,96,0.00,,,0.01,21,Wunderground v.1.15,2013-06-29 12:10:00,
2013-06-29 08:20:00,70.8,69.6,29.68,SSW,195,1.0,1.0,96,0.00,,,0.01,25,Wunderground v.1.15,2013-06-29 12:20:00,
2013-06-29 08:30:00,70.9,69.4,29.68,WNW,291,0.0,0.0,95,0.00,,,0.01,23,Wunderground v.1.15,2013-06-29 12:30:00,
2013-06-29 08:40:00,71.1,69.6,29.67,West,275,0.0,0.0,95,0.00,,,0.01,23,Wunderground v.1.15,2013-06-29 12:40:00,
2013-06-29 08:50:00,71.6,70.1,29.67,West,275,0.0,2.0,95,0.00,,,0.01,23,Wunderground v.1.15,2013-06-29 12:50:00,
2013-06-29 09:00:00,71.8,70.0,29.67,West,275,0.0,0.0,94,0.00,,,0.01,25,Wunderground v.1.15,2013-06-29 13:00:00,
2013-06-29 09:10:00,72.1,70.0,29.67,West,275,0.0,5.0,93,0.00,,,0.01,25,Wunderground v.1.15,2013-06-29 13:10:00,
2013-06-29 09:20:00,72.3,69.5,29.67,West,277,0.0,5.0,91,0.00,,,0.01,25,Wunderground v.1.15,2013-06-29 13:20:00,
2013-06-29 09:30:00,72.5,68.4,29.67,West,277,0.0,5.0,87,0.00,,,0.01,26,Wunderground v.1.15,2013-06-29 13:30:00,
2013-06-29 09:40:00,73.2,68.1,29.68,West,277,0.0,0.0,84,0.00,,,0.01,28,Wunderground v.1.15,2013-06-29 13:40:00,
2013-06-29 09:50:00,74.4,68.5,29.68,SSW,202,1.0,1.0,82,0.00,,,0.01,33,Wunderground v.1.15,2013-06-29 13:50:00,
2013-06-29 10:00:00,75.1,68.1,29.68,WNW,285,1.0,1.0,79,0.00,,,0.01,40,Wunderground v.1.15,2013-06-29 14:00:00,
2013-06-29 10:10:00,75.6,68.6,29.68,SW,234,1.0,4.0,79,0.00,,,0.01,32,Wunderground v.1.15,2013-06-29 14:10:00,
2013-06-29 10:20:00,76.3,67.8,29.68,SSW,202,1.0,1.0,75,0.00,,,0.01,33,Wunderground v.1.15,2013-06-29 14:20:00,
2013-06-29 10:30:00,76.8,67.5,29.68,SSW,202,1.0,4.0,73,0.00,,,0.01,37,Wunderground v.1.15,2013-06-29 14:30:00,
2013-06-29 10:40:00,77.6,67.9,29.68,NW,308,2.0,2.0,72,0.00,,,0.01,40,Wunderground v.1.15,2013-06-29 14:40:00,
2013-06-29 10:50:00,78.1,66.7,29.68,SW,225,1.0,4.0,68,0.00,,,0.01,44,Wunderground v.1.15,2013-06-29 14:50:00,
2013-06-29 11:00:00,78.8,63.7,29.68,WNW,282,2.0,3.0,60,0.00,,,0.01,46,Wunderground v.1.15,2013-06-29 15:00:00,
2013-06-29 11:10:00,79.4,61.3,29.68,WSW,248,1.0,7.0,54,0.00,,,0.01,253,Wunderground v.1.15,2013-06-29 15:10:00,
2013-06-29 11:20:00,80.7,60.3,29.68,West,269,2.0,7.0,50,0.00,,,0.01,554,Wunderground v.1.15,2013-06-29 15:20:00,
2013-06-29 11:30:00,81.4,60.4,29.68,NW,319,1.0,7.0,49,0.00,,,0.01,70,Wunderground v.1.15,2013-06-29 15:30:00,
2013-06-29 11:40:00,81.4,61.5,29.68,NNW,338,3.0,5.0,51,0.00,,,0.01,72,Wunderground v.1.15,2013-06-29 15:40:00,
2013-06-29 11:50:00,82.4,60.1,29.68,WNW,292,3.0,4.0,47,0.00,,,0.01,153,Wunderground v.1.15,2013-06-29 15:50:00,
2013-06-29 12:00:00,82.6,60.3,29.68,WSW,254,2.0,3.0,47,0.00,,,0.01,114,Wunderground v.1.15,2013-06-29 16:00:00,
2013-06-29 12:10:00,82.0,59.2,29.69,SSW,197,2.0,7.0,46,0.00,,,0.01,413,Wunderground v.1.15,2013-06-29 16:10:00,
2013-06-29 12:20:00,82.6,57.2,29.69,NW,316,3.0,3.0,42,0.00,,,0.01,153,Wunderground v.1.15,2013-06-29 16:20:00,
2013-06-29 12:30:00,83.0,57.5,29.69,WSW,248,2.0,7.0,42,0.00,,,0.01,153,Wunderground v.1.15,2013-06-29 16:30:00,
2013-06-29 12:40:00,83.8,57.6,29.69,SSW,196,3.0,3.0,41,0.00,,,0.01,944,Wunderground v.1.15,2013-06-29 16:40:00,
2013-06-29 12:50:00,84.3,58.0,29.69,NNW,332,1.0,1.0,41,0.00,,,0.01,914,Wunderground v.1.15,2013-06-29 16:50:00,
2013-06-29 13:00:00,84.0,56.4,29.69,NW,307,2.0,2.0,39,0.00,,,0.01,234,Wunderground v.1.15,2013-06-29 17:00:00,
2013-06-29 13:10:00,83.6,57.4,29.69,NW,316,1.0,9.0,41,0.00,,,0.01,308,Wunderground v.1.15,2013-06-29 17:10:00,
2013-06-29 13:20:00,82.8,58.7,29.69,NNW,340,2.0,9.0,44,0.00,,,0.01,165,Wunderground v.1.15,2013-06-29 17:20:00,
2013-06-29 13:30:00,82.4,58.3,29.69,NNW,340,1.0,1.0,44,0.00,,,0.01,200,Wunderground v.1.15,2013-06-29 17:30:00,
2013-06-29 13:40:00,82.2,59.4,29.69,WNW,285,1.0,1.0,46,0.00,,,0.01,281,Wunderground v.1.15,2013-06-29 17:40:00,
2013-06-29 13:51:00,82.0,59.2,29.69,NNW,339,2.0,2.0,46,0.00,,,0.01,281,Wunderground v.1.15,2013-06-29 17:51:00,
2013-06-29 14:00:00,82.0,59.8,29.68,NW,315,1.0,1.0,47,0.00,,,0.01,264,Wunderground v.1.15,2013-06-29 18:00:00,
2013-06-29 14:10:00,83.0,59.5,29.68,NW,326,3.0,12.0,45,0.00,,,0.01,243,Wunderground v.1.15,2013-06-29 18:10:00,
2013-06-29 14:20:00,83.8,62.0,29.68,South,173,2.0,2.0,48,0.00,,,0.01,795,Wunderground v.1.15,2013-06-29 18:20:00,
2013-06-29 14:30:00,84.9,59.2,29.67,NW,311,2.0,12.0,42,0.00,,,0.01,204,Wunderground v.1.15,2013-06-29 18:30:00,
2013-06-29 14:40:00,84.5,58.9,29.67,NNE,32,3.0,3.0,42,0.00,,,0.01,334,Wunderground v.1.15,2013-06-29 18:40:00,
2013-06-29 14:50:00,84.7,57.7,29.67,WNW,284,3.0,3.0,40,0.00,,,0.01,262,Wunderground v.1.15,2013-06-29 18:50:00,
2013-06-29 15:00:00,84.7,59.1,29.67,SSW,207,4.0,4.0,42,0.00,,,0.01,984,Wunderground v.1.15,2013-06-29 19:00:00,
2013-06-29 15:10:00,85.7,57.9,29.67,NW,321,4.0,4.0,39,0.00,,,0.01,125,Wunderground v.1.15,2013-06-29 19:10:00,
2013-06-29 15:20:00,85.7,57.9,29.67,NW,319,4.0,4.0,39,0.00,,,0.01,935,Wunderground v.1.15,2013-06-29 19:20:00,
2013-06-29 15:30:00,85.7,57.2,29.67,NW,316,3.0,3.0,38,0.00,,,0.01,923,Wunderground v.1.15,2013-06-29 19:30:00,
2013-06-29 15:40:00,85.7,57.9,29.67,WSW,242,4.0,7.0,39,0.00,,,0.01,872,Wunderground v.1.15,2013-06-29 19:40:00,
2013-06-29 15:50:00,87.0,57.6,29.67,NW,309,4.0,4.0,37,0.00,,,0.01,846,Wunderground v.1.15,2013-06-29 19:50:00,
2013-06-29 16:00:00,87.0,58.3,29.67,WSW,249,3.0,3.0,38,0.00,,,0.01,842,Wunderground v.1.15,2013-06-29 20:00:00,
2013-06-29 16:10:00,87.6,57.3,29.67,North,5,3.0,3.0,36,0.00,,,0.01,807,Wunderground v.1.15,2013-06-29 20:10:00,
2013-06-29 16:20:00,87.2,57.8,29.67,North,360,4.0,14.0,37,0.00,,,0.01,828,Wunderground v.1.15,2013-06-29 20:20:00,
2013-06-29 16:30:00,86.5,57.9,29.66,West,265,4.0,4.0,38,0.00,,,0.01,765,Wunderground v.1.15,2013-06-29 20:30:00,
2013-06-29 16:40:00,86.7,57.3,29.66,NNW,343,3.0,6.0,37,0.00,,,0.01,729,Wunderground v.1.15,2013-06-29 20:40:00,
2013-06-29 16:50:00,86.7,57.3,29.66,NNW,329,3.0,3.0,37,0.00,,,0.01,708,Wunderground v.1.15,2013-06-29 20:50:00,
2013-06-29 17:00:00,87.6,57.3,29.65,WSW,245,2.0,2.0,36,0.00,,,0.01,686,Wunderground v.1.15,2013-06-29 21:00:00,
2013-06-29 17:10:00,88.2,54.6,29.65,North,5,2.0,2.0,32,0.00,,,0.01,663,Wunderground v.1.15,2013-06-29 21:10:00,
2013-06-29 18:10:00,87.6,56.6,29.64,NE,49,3.0,3.0,35,0.00,,,0.01,483,Wunderground v.1.15,2013-06-29 22:10:00,
2013-06-29 18:20:00,87.0,56.8,29.64,South,188,3.0,3.0,36,0.00,,,0.01,445,Wunderground v.1.15,2013-06-29 22:20:00,
2013-06-29 18:30:00,87.4,56.4,29.64,SW,215,2.0,10.0,35,0.00,,,0.01,410,Wunderground v.1.15,2013-06-29 22:30:00,
2013-06-29 20:00:00,85.5,59.1,29.64,NNW,347,0.0,10.0,41,0.00,,,0.01,83,Wunderground v.1.15,2013-06-30 00:00:00,
2013-06-29 20:10:00,84.3,58.0,29.64,WNW,299,0.0,10.0,41,0.00,,,0.01,39,Wunderground v.1.15,2013-06-30 00:10:00,
2013-06-29 20:20:00,83.6,58.1,29.64,WSW,258,0.0,10.0,42,0.00,,,0.01,32,Wunderground v.1.15,2013-06-30 00:20:00,
2013-06-29 20:30:00,83.2,58.4,29.64,West,267,0.0,10.0,43,0.00,,,0.01,23,Wunderground v.1.15,2013-06-30 00:30:00,
2013-06-29 20:40:00,82.4,58.9,29.64,NNW,340,0.0,0.0,45,0.00,,,0.01,14,Wunderground v.1.15,2013-06-30 00:40:00,
2013-06-29 20:50:00,81.8,59.6,29.64,NNW,340,0.0,0.0,47,0.00,,,0.01,7,Wunderground v.1.15,2013-06-30 00:50:00,
2013-06-29 21:00:00,81.1,59.6,29.64,NNW,340,0.0,0.0,48,0.00,,,0.01,0,Wunderground v.1.15,2013-06-30 01:00:00,
2013-06-29 21:10:00,80.5,59.0,29.64,NNW,340,0.0,5.0,48,0.00,,,0.01,0,Wunderground v.1.15,2013-06-30 01:10:00,
2013-06-29 21:21:00,79.9,59.6,29.64,SW,232,0.0,5.0,50,0.00,,,0.01,0,Wunderground v.1.15,2013-06-30 01:21:00,
2013-06-29 21:30:00,79.6,59.9,29.65,SW,232,0.0,5.0,51,0.00,,,0.01,0,Wunderground v.1.15,2013-06-30 01:30:00,
2013-06-29 21:40:00,79.2,60.6,29.66,SW,233,0.0,0.0,53,0.00,,,0.01,0,Wunderground v.1.15,2013-06-30 01:40:00,
2013-06-29 21:50:00,78.3,60.3,29.66,SW,233,0.0,0.0,54,0.00,,,0.01,0,Wunderground v.1.15,2013-06-30 01:50:00,
2013-06-29 22:00:00,77.7,61.3,29.67,SW,233,0.0,0.0,57,0.00,,,0.01,0,Wunderground v.1.15,2013-06-30 02:00:00,
2013-06-29 22:10:00,77.0,61.1,29.67,SW,233,0.0,2.0,58,0.00,,,0.01,0,Wunderground v.1.15,2013-06-30 02:10:00,
2013-06-29 22:20:00,76.1,61.2,29.67,SW,233,0.0,2.0,60,0.00,,,0.01,0,Wunderground v.1.15,2013-06-30 02:20:00,
2013-06-29 22:30:00,75.6,61.7,29.67,SW,233,0.0,2.0,62,0.00,,,0.01,0,Wunderground v.1.15,2013-06-30 02:30:00,
2013-06-29 22:40:00,75.1,61.6,29.68,SW,233,0.0,0.0,63,0.00,,,0.01,0,Wunderground v.1.15,2013-06-30 02:40:00,
2013-06-29 22:51:00,74.6,62.1,29.68,SW,233,0.0,0.0,65,0.00,,,0.01,0,Wunderground v.1.15,2013-06-30 02:51:00,
2013-06-29 23:00:00,74.0,61.5,29.68,SW,233,0.0,0.0,65,0.00,,,0.01,0,Wunderground v.1.15,2013-06-30 03:00:00,
2013-06-29 23:10:00,73.7,62.1,29.68,SW,233,0.0,2.0,67,0.00,,,0.01,0,Wunderground v.1.15,2013-06-30 03:10:00,
2013-06-29 23:21:00,73.3,62.1,29.68,SW,233,0.0,2.0,68,0.00,,,0.01,0,Wunderground v.1.15,2013-06-30 03:21:00,
2013-06-29 23:30:00,73.0,62.6,29.68,SW,233,0.0,2.0,70,0.00,,,0.01,0,Wunderground v.1.15,2013-06-30 03:30:00,
2013-06-29 23:40:00,73.0,63.0,29.68,SW,233,0.0,0.0,71,0.00,,,0.01,0,Wunderground v.1.15,2013-06-30 03:40:00,
2013-06-29 23:50:00,73.2,63.2,29.68,SW,233,0.0,0.0,71,0.00,,,0.01,0,Wunderground v.1.15,2013-06-30 03:50:00,